Probability
0 0 0 0 0 0 0 0 0 0 0 0 0 0 0 0 0 0 0 0 0 0 0 0 0 0 0 0 0 0 0 0 0 0 0 0 0 0 0 0 0 0 0 0
0 0 0 0 0 0 0 0 0 0 0 0 0 0 0 0 0 0 0 0 0 0 0 0 0 0 0 0 0 0 0 0 0 0 0 0 0 0 0 0 0 0 0 0
0 0 0 0 0 0 0 0 0 0 0 0 0 0 0 0 0 0 0 0 0 0 0 0 0 0 0 0 0 0 0 0 0 0 0 0 0 0 0 0 0 0 0 0
0 0 0 0 0 0 0 0 0 0 0 0 0 0 0 0 0 0 0 0 0 0 0 0 0 0 0 0 0 0 0 0 0 0 0 0 0 0 0 0 0 0 0 0
0 0 0 0 0 0 0 0 0 0 0 0 0 0 0 0 0 0 0 0 0 0 0 0 0 0 0 0 0 0 0 0 0 0 0 0 0 0 0 0 0 0 0 0
0 0 0 0 0 0 0 0 0 0 0 0 0 0 0 0 0 0 0 0 0 0 0 0 0 0 0 0 0 0 0 0 0 0 0 0 0 0 0 0 0 0 0 0
0 0 0 0 0 0 0 0 0 0 0 0 0 0 0 0 0 0 0 0 0 0 0 0 0 0 0 0 0 0 0 0 0 0 0 0 0 0 0 0 0 0 0 0
0 0 0 0 0 0 0 0 0 0 0 0 0 0 0 0 0 0 0 0 0 0 0 0 0 0 0 0 0 0 0 0 0 0 0 0 0 0 0 0 0 0 0 0
0 0 0 0 0 0 0 0 0 0 0 0 0 0 0 0 0 0 0 0 0 0 0 0 0 0 0 0 0 0 0 0 0 0 0 0 0 0 0 0 0 0 0 0
0 0 0 0 0 0 0 0 0 0 0 0 0 0 0 0 0 0 0 0 0 0 0 0 0 0 0 0 0 0 0 0 0 0 0 0 0 0 0 0 0 0 0 0
0 0 0 0 0 0 0 0 0 0 0 0 0 0 0 0 0 0 0 0 0 0 0 0 0 0 0 0 0 0 0 0 0 0 0 0 0 0 0 0 0 0 0 0
0 0 0 0 0 0 0 0 0 0 0 0 0 0 0 0 0 0 0 0 0 0 0 0 0 0 0 0 0 0 0 0 0 0 0 0 0 0 0 0 0 0 0 0
1 0 0 0 0 0 0 0 0 0 0 0 0 0 0 0 0 0 0 0 0 0 0 0 0 0 0 0 0 0 0 0 0 0 0 0 0 0 0 0 0 0 0 0
1 0 0 0 0 0 0 0 0 0 0 0 0 0 0 0 0 0 0 0 0 0 0 0 0 0 0 0 0 0 0 0 0 0 0 0 0 0 0 0 0 0 0 0
1 0 0 0 0 0 0 0 0 0 0 0 0 0 0 0 0 0 0 0 0 0 0 0 0 0 0 0 0 0 0 0 0 0 0 0 0 0 0 0 0 0 0 0
0 0 0 0 0 0 0 0 0 0 0 0 0 0 0 0 0 0 0 0 0 0 0 0 0 0 0 0 0 0 0 0 0 0 0 0 0 0 0 0 0 0 0 0
0 0 0 0 0 0 0 0 0 0 0 0 0 0 0 0 0 0 0 0 0 0 0 0 0 0 0 0 0 0 0 0 0 0 0 0 0 0 0 0 0 0 0 0
0 0 0 0 0 0 0 0 0 0 0 0 0 0 0 0 0 0 0 0 0 0 0 0 0 0 0 0 0 0 0 0 0 0 0 0 0 0 0 0 0 0 0 0
0 0 0 0 0 0 0 0 0 0 0 0 0 0 0 0 0 0 0 0 0 0 0 0 0 0 0 0 0 0 0 0 0 0 0 0 0 0 0 0 0 0 0 0
0 0 0 0 0 0 0 0 0 0 0 0 0 0 0 0 0 0 0 0 0 0 0 0 0 0 0 0 0 0 0 0 0 0 0 0 0 0 0 0 0 0 0 0
0 0 0 0 0 0 0 0 0 0 0 0 0 0 0 0 0 0 0 0 0 0 0 0 0 0 0 0 0 0 0 0 0 0 0 0 0 0 0 0 0 0 0 0
0 0 0 0 0 0 0 0 0 0 0 0 0 0 0 0 0 0 0 0 0 0 0 0 0 0 0 0 0 0 0 0 0 0 0 0 0 0 0 0 0 0 0 0
0 0 0 0 0 0 0 0 0 0 0 0 0 0 0 0 0 0 0 0 0 0 0 0 0 0 0 0 0 0 0 0 0 0 0 0 0 0 0 0 0 0 0 0
0 0 0 0 0 0 0 0 0 0 0 0 0 0 0 0 0 0 0 0 0 0 0 0 0 0 0 0 0 0 0 0 0 0 0 0 0 0 0 0 0 0 0 0
0 0 0 0 0 0 0 0 0 0 0 0 0 0 0 0 0 0 0 0 0 0 0 0 0 0 0 0 0 0 0 0 0 0 0 0 0 0 0 0 0 0 0 0
0 0 0 0 0 0 0 0 0 0 0 0 0 0 0 0 0 0 0 0 0 0 0 0 0 0 0 0 0 0 0 0 0 0 0 0 0 0 0 0 0 0 0 0
Wind_Speed
7 7 12 15 14 8 6 6 6 6 5 6 10 13 14 10 8 10 11 11 12 14 12 9 10 10 10 12 14 16 16 15 13 11 10 10 9 8 7 7 9 10 9 9
6 15 15 9 9 9 7 6 6 5 3 6 8 13 12 11 10 12 12 12 13 12 9 8 8 8 11 13 15 15 16 16 16 13 11 8 7 6 6 6 8 10 10 9
17 9 12 11 10 12 12 11 9 6 4 3 4 8 9 9 8 9 9 10 10 12 12 9 9 10 11 13 15 15 16 16 15 13 8 6 4 3 4 6 7 8 10 9
14 9 12 13 14 13 14 10 9 7 4 5 2 6 8 7 8 9 10 9 9 10 9 9 9 10 11 13 12 13 15 14 14 14 13 13 10 9 9 7 6 7 9 9
13 12 15 18 17 15 7 7 8 7 6 5 4 5 9 5 9 11 10 9 9 9 9 9 10 10 10 10 11 11 12 13 13 14 15 15 10 7 5 5 7 8 7 8
10 8 13 14 12 12 6 4 2 1 2 8 10 8 10 7 11 9 8 8 8 8 8 7 6 6 6 7 8 10 12 12 13 14 15 15 13 10 9 9 9 8 5 6
12 12 9 8 10 10 9 7 4 4 5 9 7 9 12 11 11 11 10 9 8 8 7 6 6 7 7 8 9 10 12 12 12 14 14 14 14 14 14 11 11 9 6 6
14 14 15 11 13 13 15 14 10 10 8 5 5 11 11 11 9 8 8 8 7 7 6 7 7 8 8 9 10 10 12 11 12 13 12 11 12 10 9 11 9 10 8 8
13 11 8 11 9 14 14 14 8 5 3 3 7 7 9 4 5 6 7 7 8 8 8 7 7 7 8 9 10 11 12 10 11 12 11 10 11 11 10 9 8 8 7 6
7 6 8 9 7 9 12 12 7 7 8 7 6 7 7 6 9 8 8 9 9 8 7 7 6 7 7 8 8 8 9 10 9 10 10 9 10 10 10 9 10 9 8 8
5 6 6 10 14 17 11 12 9 8 6 7 6 9 9 12 12 12 12 11 10 9 8 7 7 6 6 6 7 8 8 8 8 9 9 9 9 9 9 10 10 10 9 9
7 5 6 11 9 11 11 13 13 12 9 8 6 10 6 8 10 10 11 10 9 8 7 7 6 6 6 7 7 8 8 8 8 8 8 9 8 8 9 9 9 10 10 10
7 6 6 4 4 7 10 11 13 9 6 6 8 11 4 2 5 7 9 9 8 7 6 5 5 6 7 8 8 8 8 8 7 7 8 8 8 9 9 9 9 9 10 9
7 6 10 15 10 11 13 12 12 10 11 11 13 10 5 4 6 6 7 8 8 7 7 7 7 7 7 8 8 8 8 8 7 8 8 9 9 9 8 8 8 9 9 9
2 8 9 8 6 11 11 16 17 17 17 16 16 14 12 10 10 9 8 7 6 7 7 8 9 8 7 7 7 7 7 7 8 8 9 9 7 7 7 7 7 8 8 9
3 6 8 10 9 9 9 16 21 22 20 17 11 14 10 8 6 6 7 8 9 9 10 10 9 8 9 9 8 8 8 8 8 9 8 7 7 7 7 7 7 7 7 6
5 3 5 10 9 7 14 20 23 19 17 19 21 21 7 8 11 12 12 11 12 12 11 10 10 10 10 9 9 9 8 7 8 8 7 7 7 7 7 7 7 7 7 6
10 6 4 5 7 14 13 10 13 18 18 16 15 11 11 14 12 11 11 13 13 11 10 10 9 8 7 7 7 6 6 7 8 7 7 7 7 7 6 7 7 6 5 6
13 10 5 5 9 9 7 8 15 17 18 16 17 13 9 8 5 8 9 11 13 12 10 9 9 8 7 7 7 8 7 7 7 7 7 7 7 7 7 7 6 5 4 4
13 11 7 6 8 13 10 7 7 8 14 13 15 15 12 9 10 13 9 9 9 7 7 7 6 6 6 6 8 8 7 7 8 8 7 7 7 7 7 7 5 4 4 4
10 10 11 8 7 10 7 6 12 13 15 9 14 15 13 15 15 8 7 7 8 8 7 7 7 7 6 7 9 8 7 8 7 6 6 6 6 6 6 5 4 4 4 3
9 9 11 9 8 12 5 10 13 10 4 5 10 13 14 13 9 7 8 8 9 8 7 7 7 6 5 7 9 8 7 6 6 6 6 5 5 5 5 5 4 4 4 4
8 8 6 9 9 5 5 8 8 5 5 6 6 7 10 8 7 8 8 9 8 8 7 6 8 7 5 5 8 8 6 6 7 7 6 5 5 4 5 5 5 4 3 3
4 3 4 5 8 7 7 5 3 4 4 4 5 6 8 8 8 8 9 8 8 7 7 7 9 9 6 5 5 6 6 7 8 7 6 5 5 4 4 3 4 4 4 3
6 4 5 7 6 4 6 6 5 4 3 2 2 4 8 10 9 9 9 9 8 7 6 7 9 9 7 6 6 6 7 8 8 7 5 5 4 4 3 2 2 3 3 4
7 8 8 8 6 5 7 7 5 4 5 5 5 4 4 8 10 9 8 8 8 9 7 8 7 8 7 7 6 5 6 8 8 6 5 4 3 3 3 2 1 1 0 2
Wind_Direction
180 179 204 204 199 196 185 190 216 235 231 195 225 242 250 250 244 244 245 242 240 241 241 228 213 203 194 190 187 186 184 182 176 177 178 181 187 186 188 190 188 186 184 182
180 215 211 198 197 205 218 225 238 268 250 215 241 253 253 245 235 235 237 239 238 241 244 229 208 194 189 188 188 186 186 182 181 183 183 183 176 179 185 185 187 187 184 182
203 207 189 192 197 205 220 220 224 238 296 296 269 280 263 259 245 247 242 236 233 228 228 221 207 199 191 190 189 188 188 184 183 176 164 147 137 139 170 188 191 191 186 183
217 213 184 194 205 197 225 215 212 224 238 265 226 275 271 256 266 255 250 240 234 231 220 214 206 199 196 196 190 187 185 183 181 174 173 172 179 185 189 183 185 185 185 182
213 196 195 205 206 192 205 186 198 212 214 250 246 252 270 255 253 252 244 236 234 225 216 214 209 203 197 189 184 184 180 181 179 179 180 182 186 183 165 165 176 183 185 184
221 207 200 206 205 194 171 129 141 130 172 243 223 218 265 227 225 238 237 229 228 222 217 218 212 195 189 181 178 176 176 181 180 182 182 186 183 173 167 175 182 185 185 186
217 226 214 180 180 188 164 146 170 210 220 240 208 213 246 233 226 219 220 221 220 213 204 203 197 190 186 180 179 177 177 181 182 183 186 188 185 180 182 182 185 183 183 190
193 213 208 195 187 183 189 177 181 191 206 241 203 226 247 241 235 226 217 210 207 206 203 204 203 194 188 185 181 178 181 181 182 185 189 187 184 185 189 187 185 188 192 192
191 215 191 196 175 165 178 195 178 153 180 218 239 258 288 248 223 216 206 198 205 207 206 206 202 195 189 186 186 184 183 182 185 187 185 185 186 187 187 184 184 188 188 182
166 198 199 185 160 190 176 164 156 177 183 221 253 239 232 218 213 215 211 210 215 214 210 207 202 197 192 188 185 182 183 185 184 185 186 187 189 188 184 182 188 188 184 179
180 181 192 178 189 185 168 177 172 174 187 183 228 251 219 206 203 202 211 212 209 207 206 205 203 197 187 179 178 182 186 185 185 187 186 186 187 184 183 187 190 188 184 181
198 179 203 209 214 187 178 184 173 185 202 189 202 256 245 213 207 198 205 210 209 206 202 198 193 184 182 185 186 187 188 190 191 186 183 187 183 181 185 190 188 184 185 186
198 187 175 201 210 196 199 194 190 184 163 179 201 249 269 225 211 205 202 206 204 200 195 193 188 188 191 192 192 192 192 192 187 181 182 184 184 185 191 190 185 184 184 185
215 206 203 203 201 185 202 204 189 178 202 213 218 228 237 219 216 218 209 203 200 198 194 193 197 199 197 194 193 193 195 189 181 180 184 189 191 191 190 185 182 183 182 183
238 217 220 228 207 180 201 204 198 204 209 213 221 219 222 216 212 213 210 200 196 204 204 202 201 200 197 195 195 194 194 187 180 181 188 194 189 183 178 177 179 180 182 186
242 224 212 228 218 197 209 207 205 213 216 222 226 234 219 216 216 216 211 202 203 209 210 206 203 198 198 197 196 192 192 185 177 184 191 184 176 175 176 177 175 175 180 180
218 221 202 220 209 205 223 208 206 213 217 213 224 232 198 203 211 215 213 207 206 207 206 203 201 200 200 197 191 191 188 173 175 183 182 176 174 175 177 172 171 177 180 178
209 216 215 199 181 217 232 203 199 214 224 216 226 226 203 211 217 217 210 203 208 206 202 201 198 198 198 188 180 173 162 164 171 174 174 171 169 171 167 166 175 178 175 182
201 195 203 200 205 237 261 205 192 201 229 219 224 229 215 210 216 242 219 205 205 202 197 196 194 188 179 173 167 154 156 160 166 174 175 173 169 167 166 173 177 173 170 181
193 189 195 198 201 220 230 206 179 173 243 224 214 221 211 175 210 235 208 195 196 188 183 180 170 159 160 166 151 149 157 162 176 179 174 166 164 166 172 175 170 162 167 178
177 187 200 205 215 248 239 166 136 179 232 212 205 212 199 199 217 215 174 182 180 173 170 161 150 154 165 154 145 151 158 176 179 159 148 150 158 163 163 156 151 151 153 156
183 184 193 193 208 239 211 151 178 212 207 194 200 204 203 213 212 180 171 170 163 158 156 150 143 146 147 146 145 151 168 169 141 135 138 144 148 146 140 142 143 146 149 158
199 196 191 201 217 238 189 199 213 189 196 205 201 206 194 190 188 176 172 166 161 157 154 147 141 136 130 142 147 153 162 138 130 130 136 138 135 133 138 145 148 146 152 163
233 185 191 228 241 244 245 247 236 212 218 218 201 183 169 172 169 163 159 157 153 151 149 142 137 136 138 139 138 144 138 133 131 134 137 137 135 133 132 138 148 155 167 177
216 197 213 239 253 261 259 243 236 249 247 211 172 178 169 156 158 160 159 159 154 145 140 141 143 144 144 136 130 130 134 133 130 132 133 133 133 139 139 142 162 173 191 188
206 202 205 227 215 207 243 249 235 218 218 192 163 155 164 159 155 152 154 153 147 142 136 134 134 135 135 132 131 132 135 135 134 134 136 137 136 136 136 134 82 7 243 244